Weather History for Tyler, TX

Change the Weather History Date:

Wednesday, November 27, 2013

  Actual Average Record
Temperature  
Mean Temperature 37 °F 52 °F  
Max Temperature 46 °F 61 °F 86 °F (1965)
Min Temperature 27 °F 42 °F 17 °F (1975)
Degree Days  
Heating Degree Days 28 14  
Month to date heating degree days 301 253  
Since 1 July heating degree days 343 330  
Cooling Degree Days 0 0  
Month to date cooling degree days 17 14  
Year to date cooling degree days 2767 2407  
Moisture  
Dew Point 21 °F    
Average Humidity 59    
Maximum Humidity 85    
Minimum Humidity 33    
Precipitation  
Precipitation 0.00 in 0.12 in 3.05 in (1982)
Month to date precipitation 4.77 3.70  
Year to date precipitation 39.01 41.15  
Snow  
Snow 0.00 in - - ()
Month to date snowfall T  
Since 1 July snowfall T  
Since 1 September snowfall T  
Snow Depth 0.00 in    
Sea Level Pressure  
Sea Level Pressure 30.39 in    
Wind  
Wind Speed 6 mph (NNW)    
Max Wind Speed 23 mph    
Max Gust Speed 31 mph    
Visibility 10 miles    
Events      
T = Trace of Precipitation, MM = Missing Value Source: NWS Daily Summary

Daily Weather History Graph

Daily Weather History Graph

Search for Another Location

Airport:

Trip Planner

Search our weather history database for the weather conditions in past years. The results will help you decide how hot, cold, wet, or windy it might be!

Date:

Astronomy

Nov. 27, 2013 Rise Set
Actual Time 7:01 AM CST 5:16 PM CST
Civil Twilight 6:35 AM CST 5:43 PM CST
Nautical Twilight 6:05 AM CST 6:13 PM CST
Astronomical Twilight 5:35 AM CST 6:42 PM CST
Moon 1:23 AM CST (11/27) 1:37 PM CST (11/27)
Length of Visible Light 11h 07m
Length of Day
10h 14m
Waning Crescent, 31% of the Moon is Illuminated
Nov 27
Waning Crescent
Dec 2
New
Dec 9
First Quarter
Dec 17
Full
Dec 25
Last Quarter

Hourly Weather History & Observations

Time (CST) Temp. Windchill Dew Point Humidity Pressure Visibility Wind Dir Wind Speed Gust Speed Precip Events Conditions
12:53 AM 36.0 °F 27.5 °F 23.0 °F 59% 30.33 in 10.0 mi North 12.7 mph 20.7 mph N/A   Clear
1:53 AM 35.1 °F 26.4 °F 23.0 °F 61% 30.34 in 10.0 mi North 12.7 mph - N/A   Clear
2:53 AM 34.0 °F 26.0 °F 23.0 °F 64% 30.35 in 10.0 mi North 10.4 mph - N/A   Clear
3:53 AM 33.1 °F 26.1 °F 23.0 °F 66% 30.36 in 10.0 mi NNW 8.1 mph - N/A   Clear
4:53 AM 32.0 °F 26.4 °F 21.9 °F 66% 30.37 in 10.0 mi NNW 5.8 mph - N/A   Clear
5:53 AM 28.9 °F 21.9 °F 21.9 °F 75% 30.38 in 10.0 mi NNW 6.9 mph - N/A   Clear
6:53 AM 28.9 °F 21.9 °F 21.9 °F 75% 30.41 in 10.0 mi NW 6.9 mph - N/A   Clear
7:53 AM 30.0 °F 22.4 °F 21.0 °F 69% 30.43 in 10.0 mi NNW 8.1 mph - N/A   Clear
8:53 AM 33.1 °F 24.4 °F 19.0 °F 56% 30.44 in 10.0 mi North 11.5 mph - N/A   Clear
9:53 AM 37.0 °F 31.0 °F 18.0 °F 46% 30.45 in 10.0 mi North 8.1 mph - N/A   Clear
10:53 AM 39.0 °F 32.3 °F 17.1 °F 41% 30.45 in 10.0 mi NNW 10.4 mph - N/A   Clear
11:53 AM 41.0 °F 35.2 °F 18.0 °F 40% 30.42 in 10.0 mi North 9.2 mph - N/A   Clear
12:53 PM 43.0 °F - 18.0 °F 37% 30.39 in 10.0 mi Calm Calm - N/A   Clear
1:53 PM 45.0 °F 41.8 °F 18.0 °F 34% 30.38 in 10.0 mi NNW 5.8 mph - N/A   Clear
2:53 PM 45.0 °F 41.2 °F 18.0 °F 34% 30.37 in 10.0 mi NW 6.9 mph - N/A   Clear
3:53 PM 45.0 °F 41.2 °F 19.0 °F 36% 30.36 in 10.0 mi NNW 6.9 mph - N/A   Clear
4:53 PM 44.1 °F 41.5 °F 19.0 °F 37% 30.36 in 10.0 mi North 4.6 mph - N/A   Clear
5:53 PM 39.0 °F - 23.0 °F 53% 30.38 in 10.0 mi Calm Calm - N/A   Clear
6:53 PM 37.0 °F - 21.9 °F 54% 30.39 in 10.0 mi Calm Calm - N/A   Clear
7:53 PM 36.0 °F - 27.0 °F 70% 30.40 in 10.0 mi Calm Calm - N/A   Clear
8:53 PM 33.1 °F 30.0 °F 26.1 °F 75% 30.43 in 10.0 mi West 3.5 mph - N/A   Clear
9:53 PM 28.9 °F - 24.1 °F 82% 30.42 in 10.0 mi Calm Calm - N/A   Clear
10:53 PM 28.9 °F - 24.1 °F 82% 30.42 in 10.0 mi Calm Calm - N/A   Clear
11:53 PM 28.0 °F - 24.1 °F 85% 30.41 in 10.0 mi Calm Calm - N/A   Clear